Weather History for Las Cruces, NM

Change the Weather History Date:

Wednesday, July 17, 2013

  Actual Average Record
Temperature  
Mean Temperature 74 °F -  
Max Temperature 82 °F 92 °F 100 °F (2005)
Min Temperature 65 °F 69 °F 62 °F (2002)
Cooling Degree Days 8    
Growing Degree Days 24 (Base 50)    
Moisture  
Dew Point 53 °F    
Average Humidity 52    
Maximum Humidity 69    
Minimum Humidity 30    
Precipitation  
Precipitation 0.00 in - - ()
Sea Level Pressure  
Sea Level Pressure 30.25 in    
Wind  
Wind Speed 9 mph (ESE)    
Max Wind Speed 25 mph    
Max Gust Speed 34 mph    
Visibility 10 miles    
Events Thunderstorm    
Averages and records for this station are not official NWS values.
T = Trace of Precipitation, MM = Missing Value Source: NWS Daily Summary

Daily Weather History Graph

Daily Weather History Graph

Search for Another Location

Airport:

Trip Planner

Search our weather history database for the weather conditions in past years. The results will help you decide how hot, cold, wet, or windy it might be!

Date:

Astronomy

Jul. 17, 2013 Rise Set
Actual Time 6:12 AM MDT 8:14 PM MDT
Civil Twilight 5:45 AM MDT 8:42 PM MDT
Nautical Twilight 5:11 AM MDT 9:15 PM MDT
Astronomical Twilight 4:35 AM MDT 9:51 PM MDT
Moon 3:10 PM MDT (7/17) 1:15 AM MDT (7/17)
Length of Visible Light 14h 56m
Length of Day
14h 01m
Waxing Gibbous, 68% of the Moon is Illuminated
Jul 17
Waxing Gibbous
Jul 22
Full
Jul 29
Last Quarter
Aug 6
New
Aug 14
First Quarter

Hourly Weather History & Observations

Time (MDT) Temp. Heat Index Dew Point Humidity Pressure Visibility Wind Dir Wind Speed Gust Speed Precip Events Conditions
12:15 AM 71.4 °F - 49.1 °F 45% 30.23 in 10.0 mi ESE 6.9 mph - N/A   Clear
12:35 AM 70.7 °F - 49.6 °F 47% 30.23 in 10.0 mi ESE 8.1 mph - N/A   Clear
12:55 AM 70.5 °F - 50.5 °F 49% 30.23 in 10.0 mi ESE 6.9 mph - N/A   Clear
1:15 AM 70.2 °F - 52.0 °F 52% 30.23 in 10.0 mi ESE 8.1 mph - N/A   Clear
1:35 AM 69.3 °F - 52.0 °F 54% 30.23 in 10.0 mi SE 6.9 mph - N/A   Clear
1:55 AM 68.4 °F - 52.2 °F 56% 30.23 in 10.0 mi ESE 6.9 mph - N/A   Clear
2:15 AM 68.0 °F - 52.0 °F 56% 30.23 in 10.0 mi SE 6.9 mph - N/A   Clear
2:35 AM 68.4 °F - 52.5 °F 57% 30.23 in 10.0 mi SE 6.9 mph - N/A   Clear
2:55 AM 68.0 °F - 52.7 °F 58% 30.23 in 10.0 mi SE 6.9 mph - N/A   Clear
3:15 AM 67.5 °F - 52.9 °F 59% 30.23 in 10.0 mi SE 6.9 mph - N/A   Clear
3:35 AM 67.3 °F - 53.4 °F 61% 30.23 in 10.0 mi SE 6.9 mph - N/A   Scattered Clouds
3:55 AM 67.1 °F - 53.6 °F 62% 30.23 in 10.0 mi SE 6.9 mph - N/A   Mostly Cloudy
4:15 AM 66.7 °F - 53.8 °F 63% 30.23 in 10.0 mi SSE 5.8 mph - N/A   Overcast
4:35 AM 66.9 °F - 54.0 °F 63% 30.24 in 10.0 mi SSE 3.5 mph - N/A   Mostly Cloudy
4:55 AM 67.3 °F - 54.0 °F 62% 30.24 in 10.0 mi Calm Calm - N/A   Overcast
5:15 AM 67.8 °F - 54.1 °F 62% 30.25 in 10.0 mi Calm Calm - N/A   Overcast
5:35 AM 67.5 °F - 54.5 °F 63% 30.25 in 10.0 mi Calm Calm - N/A   Overcast
5:55 AM 66.6 °F - 54.7 °F 66% 30.25 in 10.0 mi Calm Calm - N/A   Mostly Cloudy
6:15 AM 65.3 °F - 54.5 °F 68% 30.26 in 10.0 mi NNW 4.6 mph - N/A   Clear
6:35 AM 65.8 °F - 54.5 °F 67% 30.27 in 10.0 mi North 4.6 mph - N/A   Clear
6:55 AM 66.4 °F - 54.5 °F 66% 30.27 in 10.0 mi NNW 3.5 mph - N/A   Clear
7:15 AM 67.3 °F - 53.1 °F 60% 30.28 in 10.0 mi North 8.1 mph - N/A   Clear
7:35 AM 69.1 °F - 52.7 °F 56% 30.28 in 10.0 mi NNE 8.1 mph - N/A   Clear
7:55 AM 71.1 °F - 51.8 °F 50% 30.28 in 10.0 mi NNE 11.5 mph - N/A   Clear
8:15 AM 71.4 °F - 52.3 °F 51% 30.29 in 10.0 mi North 13.8 mph - N/A   Clear
8:35 AM 72.0 °F - 52.9 °F 51% 30.29 in 10.0 mi North 13.8 mph 18.4 mph N/A   Clear
8:55 AM 72.3 °F - 53.8 °F 52% 30.29 in 10.0 mi North 13.8 mph - N/A   Clear
9:15 AM 73.2 °F - 53.4 °F 50% 30.29 in 10.0 mi North 10.4 mph - N/A   Clear
9:35 AM 74.3 °F - 52.7 °F 47% 30.29 in 10.0 mi ENE 9.2 mph - N/A   Clear
9:55 AM 74.8 °F - 53.4 °F 47% 30.29 in 10.0 mi NE 6.9 mph - N/A   Clear
10:15 AM 76.3 °F - 54.0 °F 46% 30.29 in 10.0 mi ENE 8.1 mph - N/A   Clear
10:35 AM 76.6 °F - 52.9 °F 43% 30.29 in 10.0 mi NNE 3.5 mph - N/A   Clear
10:55 AM 77.7 °F - 52.9 °F 42% 30.28 in 10.0 mi Calm Calm - N/A   Scattered Clouds
11:15 AM 78.8 °F - 52.0 °F 39% 30.28 in 10.0 mi ENE 8.1 mph - N/A   Scattered Clouds
11:35 AM 78.1 °F - 51.6 °F 40% 30.27 in 10.0 mi SSE 4.6 mph - N/A   Overcast
11:55 AM 78.6 °F - 51.1 °F 38% 30.27 in 10.0 mi NE 5.8 mph - N/A   Overcast
12:15 PM 78.8 °F - 49.5 °F 36% 30.27 in 10.0 mi ESE 3.5 mph - N/A   Overcast
12:35 PM 82.6 °F - 50.0 °F 32% 30.26 in 10.0 mi East 10.4 mph - N/A   Mostly Cloudy
12:55 PM 82.8 °F - 49.3 °F 31% 30.25 in 10.0 mi East 10.4 mph 16.1 mph N/A   Scattered Clouds
1:15 PM 82.2 °F - 48.4 °F 31% 30.24 in 10.0 mi ENE 6.9 mph 16.1 mph N/A   Mostly Cloudy
1:35 PM 82.9 °F - 48.4 °F 30% 30.24 in 10.0 mi East 6.9 mph 17.3 mph N/A   Mostly Cloudy
1:55 PM 79.7 °F - 54.7 °F 42% 30.24 in 10.0 mi SE 20.7 mph 28.8 mph N/A   Mostly Cloudy
2:15 PM 81.9 °F 81.1 °F 54.1 °F 38% 30.24 in 7.0 mi East 24.2 mph 34.5 mph N/A Thunderstorm Mostly Cloudy
2:35 PM 78.4 °F - 54.5 °F 43% 30.24 in 10.0 mi ESE 23.0 mph 29.9 mph N/A   Mostly Cloudy
2:55 PM 77.5 °F - 54.0 °F 44% 30.23 in 10.0 mi ESE 21.9 mph 31.1 mph N/A   Overcast
3:15 PM 79.5 °F - 53.6 °F 41% 30.23 in 10.0 mi ESE 25.3 mph 33.4 mph N/A Thunderstorm Scattered Clouds
3:35 PM 81.0 °F - 52.2 °F 37% 30.23 in 10.0 mi ESE 16.1 mph 27.6 mph N/A Thunderstorm Scattered Clouds
3:55 PM 77.9 °F - 51.4 °F 40% 30.23 in 10.0 mi ESE 18.4 mph 25.3 mph N/A   Scattered Clouds
4:15 PM 77.5 °F - 50.9 °F 39% 30.23 in 10.0 mi SE 15.0 mph 21.9 mph N/A   Clear
4:35 PM 77.7 °F - 50.9 °F 39% 30.22 in 10.0 mi SE 16.1 mph 26.5 mph N/A   Clear
4:55 PM 77.0 °F - 52.0 °F 42% 30.22 in 10.0 mi SE 16.1 mph 21.9 mph N/A   Clear
5:15 PM 76.5 °F - 52.2 °F 43% 30.22 in 10.0 mi ESE 17.3 mph 25.3 mph N/A   Clear
5:35 PM 75.9 °F - 52.3 °F 44% 30.21 in 10.0 mi SE 18.4 mph 24.2 mph N/A   Clear
5:55 PM 75.2 °F - 52.9 °F 46% 30.21 in 10.0 mi ESE 18.4 mph 23.0 mph N/A   Clear
6:15 PM 74.7 °F - 53.6 °F 48% 30.21 in 10.0 mi SE 16.1 mph 20.7 mph N/A   Clear
6:35 PM 74.3 °F - 53.1 °F 47% 30.22 in 10.0 mi ESE 18.4 mph 21.9 mph N/A   Clear
6:55 PM 73.0 °F - 54.0 °F 51% 30.22 in 10.0 mi ESE 15.0 mph 23.0 mph N/A   Clear
7:15 PM 72.3 °F - 53.6 °F 52% 30.21 in 10.0 mi ESE 16.1 mph 21.9 mph N/A   Clear
7:35 PM 71.8 °F - 52.7 °F 51% 30.23 in 10.0 mi ESE 17.3 mph 21.9 mph N/A   Clear
7:55 PM 71.1 °F - 52.7 °F 52% 30.24 in 10.0 mi East 17.3 mph 24.2 mph N/A   Clear
8:15 PM 70.5 °F - 52.7 °F 53% 30.25 in 10.0 mi East 15.0 mph 21.9 mph N/A   Clear
8:35 PM 69.8 °F - 53.8 °F 57% 30.25 in 10.0 mi ESE 9.2 mph - N/A   Clear
8:55 PM 69.3 °F - 54.9 °F 60% 30.25 in 10.0 mi ESE 10.4 mph 19.6 mph N/A   Clear
9:15 PM 68.9 °F - 55.2 °F 62% 30.27 in 10.0 mi ESE 15.0 mph - N/A   Scattered Clouds
9:35 PM 68.9 °F - 55.9 °F 63% 30.27 in 10.0 mi ESE 10.4 mph - N/A   Mostly Cloudy
9:55 PM 68.5 °F - 56.5 °F 65% 30.28 in 10.0 mi ESE 10.4 mph - N/A   Mostly Cloudy
10:15 PM 68.7 °F - 57.0 °F 66% 30.28 in 10.0 mi ESE 10.4 mph - N/A   Mostly Cloudy
10:35 PM 68.7 °F - 57.4 °F 67% 30.29 in 10.0 mi ESE 13.8 mph - N/A   Scattered Clouds
10:55 PM 68.7 °F - 57.4 °F 67% 30.29 in 10.0 mi ESE 11.5 mph 16.1 mph N/A   Clear
11:15 PM 68.4 °F - 57.4 °F 68% 30.29 in 10.0 mi ESE 9.2 mph - N/A   Clear
11:35 PM 68.4 °F - 57.6 °F 68% 30.29 in 10.0 mi ESE 6.9 mph - N/A   Scattered Clouds
11:55 PM 68.2 °F - 57.7 °F 69% 30.28 in 10.0 mi ESE 8.1 mph - N/A   Scattered Clouds